This is the latest recevied weather packets stored in our database for station/object KM4KMS. If no packets are shown the sender has not sent any weather packets the latest 10 day(s).
| Time | Temp. | Humidity | Pressure | Rain* | Wind** | Luminosity | Snow |
|---|---|---|---|---|---|---|---|
| 1777830359 | 15° C | 43% | 1018.1 hPa | 0 mm | - | 672 W/m² | - |
| 1777830056 | 15.56° C | 45% | 1018 hPa | 0 mm | - | 669 W/m² | - |
| 1777829751 | 15° C | 41% | 1018.2 hPa | 0 mm | - | 657 W/m² | - |
| 1777829448 | 15° C | 42% | 1018.2 hPa | 0 mm | - | 659 W/m² | - |
| 1777829145 | 14.44° C | 40% | 1018.4 hPa | 0 mm | - | 698 W/m² | - |
| 1777828842 | 13.89° C | 40% | 1018.4 hPa | 0 mm | - | 652 W/m² | - |
| 1777828538 | 14.44° C | 46% | 1018.6 hPa | 0 mm | - | 607 W/m² | - |
| 1777828236 | 13.89° C | 44% | 1018.5 hPa | 0 mm | - | 665 W/m² | - |
| 1777827932 | 15° C | 42% | 1018.8 hPa | 0 mm | - | 695 W/m² | - |
| 1777827630 | 15° C | 43% | 1018.8 hPa | 0 mm | - | 682 W/m² | - |
| 1777827327 | 14.44° C | 44% | 1018.8 hPa | 0 mm | - | 638 W/m² | - |
| 1777827023 | 14.44° C | 43% | 1018.8 hPa | 0 mm | - | 692 W/m² | - |
| 1777826720 | 14.44° C | 44% | 1018.9 hPa | 0 mm | - | 711 W/m² | - |
| 1777826417 | 15° C | 45% | 1018.9 hPa | 0 mm | - | 691 W/m² | - |
| 1777826114 | 14.44° C | 45% | 1018.9 hPa | 0 mm | - | 619 W/m² | - |
| 1777825811 | 14.44° C | 47% | 1019.1 hPa | 0 mm | - | 602 W/m² | - |
| 1777825508 | 14.44° C | 44% | 1019.2 hPa | 0 mm | - | 732 W/m² | - |
| 1777825206 | 13.89° C | 48% | 1019.3 hPa | 0 mm | - | 759 W/m² | - |
| 1777824903 | 15° C | 42% | 1019.3 hPa | 0 mm | - | 752 W/m² | - |
| 1777824598 | 13.89° C | 47% | 1019.4 hPa | 0 mm | - | 767 W/m² | - |
| 1777824296 | 15° C | 43% | 1019.4 hPa | 0 mm | - | 787 W/m² | - |
| 1777823991 | 15° C | 45% | 1019.7 hPa | 0 mm | - | 812 W/m² | - |
| 1777823688 | 14.44° C | 52% | 1019.6 hPa | 0 mm | - | 811 W/m² | - |
| 1777823385 | 13.33° C | 47% | 1019.6 hPa | 0 mm | - | 807 W/m² | - |
| 1777823083 | 13.33° C | 53% | 1019.6 hPa | 0 mm | - | 723 W/m² | - |
* Rain latest hour (hover to see other rain measurements)
** Current wind speed in m/s (hover to see current wind gust speed)